GW0851 Weather Reports


time (UTC)temp
C
wind
direction
speed
KPH
gust
KPH
rain 1hr
cm
rain 24hr
cm
rain mn
cm
humidity
%
barometer
mb
20260504231548 21 108 1.6 11.3 0.00 0.00 0.00 43 1006.6
20260504230036 21 122 3.2 11.3 0.00 0.00 0.00 43 1006.5
20260504224532 21 36 3.2 14.5 0.00 0.00 0.00 41 1006.5
20260504223028 21 119 4.8 17.7 0.00 0.00 0.00 41 1006.4
20260504221529 22 223 4.8 16.1 0.00 0.00 0.00 40 1006.5
20260504220026 22 111 9.7 19.3 0.00 0.00 0.00 39 1006.5
20260504214524 22 98 3.2 17.7 0.00 0.00 0.00 40 1006.5
20260504213042 22 98 8.0 16.1 0.00 0.00 0.00 39 1006.6
20260504211517 22 94 3.2 20.9 0.00 0.00 0.00 41 1006.6
20260504210015 22 107 4.8 20.9 0.00 0.00 0.00 40 1006.7
20260504204510 22 100 14.5 30.6 0.00 0.00 0.00 39 1006.8
20260504203011 22 83 11.3 24.1 0.00 0.00 0.00 38 1007.0
20260504201510 22 82 12.9 25.7 0.00 0.00 0.00 39 1007.1
20260504200005 22 102 12.9 24.1 0.00 0.00 0.00 39 1007.4
20260504194502 22 102 11.3 25.7 0.00 0.00 0.00 40 1007.6
20260504193002 22 111 6.4 16.1 0.00 0.00 0.00 38 1007.7
20260504191605 22 217 8.0 25.7 0.00 0.00 0.00 40 1008.0
20260504190120 22 347 6.4 22.5 0.00 0.00 0.00 38 1008.2
20260504184608 22 76 9.7 32.2 0.00 0.00 0.00 39 1008.2
20260504183054 22 124 3.2 19.3 0.00 0.00 0.00 42 1008.5
20260504181554 22 93 1.6 19.3 0.00 0.00 0.00 39 1008.7
20260504180052 22 138 11.3 27.4 0.00 0.00 0.00 41 1008.9
20260504174601 21 61 6.4 24.1 0.00 0.00 0.00 41 1009.0
20260504173051 21 81 6.4 20.9 0.00 0.00 0.00 39 1009.2
20260504171546 21 126 8.0 19.3 0.00 0.00 0.00 42 1009.4
20260504081512 1 55 0.0 0.0 0.00 0.00 0.00 91 1012.8
20260504060104 2 55 0.0 0.0 0.00 0.00 0.00 89 1012.7
20260504044601 3 55 0.0 0.0 0.00 0.00 0.00 85 1012.7
20260504043051 3 55 0.0 0.0 0.00 0.00 0.00 84 1012.6
20260504041550 4 55 0.0 0.0 0.00 0.00 0.00 82 1012.6
20260504040042 4 55 0.0 0.0 0.00 0.00 0.00 80 1012.4
20260504034550 5 55 0.0 0.0 0.00 0.00 0.00 79 1012.2
20260504033050 5 55 0.0 0.0 0.00 0.00 0.00 77 1012.0
20260504031536 5 55 0.0 0.0 0.00 0.00 0.00 75 1012.0
20260504030030 6 55 0.0 0.0 0.00 0.00 0.00 74 1011.9
20260504024530 6 55 0.0 0.0 0.00 0.00 0.00 71 1011.9
20260504023027 7 55 0.0 0.0 0.00 0.00 0.00 68 1011.8
20260504021534 7 55 0.0 0.0 0.00 0.00 0.00 66 1011.8
20260504020013 8 55 0.0 0.0 0.00 0.00 0.00 64 1011.8
20260504014502 8 55 0.0 0.0 0.00 0.00 0.00 61 1011.8
20260504013106 9 55 0.0 0.0 0.00 0.00 0.00 59 1011.7
20260504011559 10 55 0.0 1.6 0.00 0.00 0.00 56 1011.7
20260504010101 10 55 0.0 0.0 0.00 0.00 0.00 53 1011.5
20260504004556 11 55 0.0 0.0 0.00 0.00 0.00 51 1011.5
20260504003053 12 55 0.0 1.6 0.00 0.00 0.00 48 1011.2
20260504001609 12 55 0.0 3.2 0.00 0.00 0.00 45 1011.0
20260504000049 13 68 3.2 12.9 0.00 0.00 0.00 41 1010.8
20260503234546 13 74 3.2 19.3 0.00 0.00 0.00 40 1010.7
20260503233046 14 132 4.8 16.1 0.00 0.00 0.00 41 1010.6